Location: Esslingen
(48.7374°N, 9.3166°E)
Time: 09:04:49
(UTC+00:00)

Daily predictions for brighter satellites

Satellite Brightness Start Highest point End
(mag) Time Altitude Azimuth Time Altitude Azimuth Time Altitude Azimuth
NOSS 0 Rocket 4.3 19:30:10 10° SW 19:36:19 73° WNW 19:42:32 10° NNE
Cosmos 2056 Rocket 4.3 19:32:25 10° NNW 19:37:33 41° ENE 19:42:35 10° SE
Lacrosse 5 2.0 19:33:06 10° NW 19:38:15 82° NE 19:43:23 10° ESE
USA 276 1.7 19:39:22 10° WNW 19:41:31 57° N 19:43:44 10° E
Ariane Rocket 4.1 19:37:33 10° ESE 19:41:55 30° ENE 19:46:19 10° N
IRS-1C Rocket 4.4 19:37:58 10° SE 19:43:05 55° ENE 19:48:14 10° N
CZ-4 R/B 3.8 19:40:37 10° SW 19:43:28 20° W 19:46:21 10° NW
Cosmos 44 3.8 19:38:42 10° NNW 19:43:30 48° NE 19:47:59 10° ESE
Lacrosse 5 rocket 1.6 19:39:47 10° SSW 19:43:54 47° SE 19:47:59 10° ENE
Cosmos 2369 Rocket 3.2 19:39:52 10° NNW 19:44:58 34° NE 19:50:01 10° ESE
Cosmos 1812 Rocket 3.6 19:40:56 10° S 19:45:18 62° E 19:49:40 10° NNE
ATLAS 5 CENTAUR R/B 3.9 19:42:43 10° WNW 19:46:59 26° WSW 19:51:58 10° S
Cosmos 2221 3.4 19:46:57 10° SSE 19:50:44 31° E 19:54:33 10° NNE
Cosmos 2344 4.2 19:42:25 10° NW 19:50:44 85° SW 20:02:18 10° SE
Cosmos 2084 4.0 19:50:23 10° NNW 19:53:58 40° NE 19:57:32 10° ESE
Resurs 01 Rocket 3.1 19:50:38 10° SSW 19:54:43 36° W 19:58:51 10° NNW
Cosmos 2237 Rocket 2.7 19:53:05 10° SW 19:58:45 66° WNW 20:04:27 10° NNE
BREEZE-M DEB (TANK) 2.4 19:56:41 10° SW 19:59:52 38° SSE 20:01:52 10° E
USA 308 3.5 19:58:03 10° W 20:00:15 23° SW 20:02:52 10° SSE
Cosmos 1378 2.9 19:58:00 10° S 20:01:14 58° E 20:04:28 10° NNE
ATLAS 3B R/B 3.1 19:54:18 10° NW 20:02:12 89° SW 20:09:48 11° SE
BREEZE-M DEB (TANK) 3.9 19:59:41 10° SW 20:03:09 45° SSE 20:11:36 10° E
Cosmos 921 Rocket 4.1 20:01:27 10° SSE 20:05:14 28° E 20:09:03 10° NE
Aureole 3 Rocket 3.2 20:02:55 10° N 20:06:25 53° E 20:10:55 10° SSE
Cosmos 923 Rocket 4.0 20:02:19 10° SSW 20:07:37 78° ESE 20:12:58 10° NNE
GEOS 3 Rocket 4.1 20:02:50 10° NE 20:07:38 37° ESE 20:12:20 10° S
SPOT 5 2.8 20:03:04 10° SSE 20:07:46 88° WSW 20:12:16 10° NNW
USA 306 4.1 20:05:11 10° WNW 20:08:40 36° N 20:12:18 10° ENE
Landsat 4 3.8 20:08:45 13° SSE 20:11:47 52° ENE 20:15:12 10° N
Cosmos 1464 Rocket 4.5 20:06:12 10° NNW 20:12:27 64° W 20:18:35 10° S
ARGOS Delta rocket 4.1 20:09:57 10° SSE 20:15:02 65° ENE 20:19:54 10° N
Okean O Rocket 3.6 20:12:58 10° SSW 20:16:42 26° W 20:20:26 10° NW
USA 234 4.4 20:11:44 10° ENE 20:17:50 43° N 20:23:56 10° WNW
Terra 1.9 20:13:56 12° SSE 20:18:17 65° ENE 20:22:59 10° N
Cosmos 1656 Rocket 3.7 20:17:21 10° NNW 20:22:48 73° ENE 20:27:23 15° SE
Cosmos 1371 Rocket 4.1 20:17:58 10° NNW 20:23:22 88° ENE 20:28:03 14° SSE
ERS-1 Rocket 3.0 20:18:56 11° SSE 20:23:48 85° ENE 20:28:51 10° NNW
ATLAS 2AS CENTAUR R/B 3.5 20:19:04 10° WSW 20:26:21 61° NW 20:33:22 10° NE
Cosmos 1842 Rocket 4.4 20:24:38 15° SSE 20:27:40 33° E 20:31:38 10° NNE
Meteor 1-14 Rocket 4.5 20:22:43 10° N 20:28:29 61° ENE 20:33:21 15° SSE
SPOT 3 Rocket 3.7 20:24:07 14° SSE 20:28:31 65° ENE 20:33:36 10° N
USA 59 Rocket 2.3 20:28:51 10° N 20:30:46 14° NNE 20:32:55 10° ENE
USA 281 3.3 20:27:32 14° SE 20:33:12 70° ENE 20:39:47 10° NNW
Meteor 1-26 Rocket 4.5 20:27:25 10° SSW 20:33:29 84° WNW 20:39:33 10° N
Cosmos 1943 Rocket 3.8 20:29:53 10° NW 20:34:40 28° WSW 20:39:23 10° SSW
Cosmos 1420 Rocket 4.4 20:30:35 10° NNW 20:35:51 64° WSW 20:40:30 13° S
Cosmos 1743 2.5 20:35:15 10° N 20:38:53 86° E 20:41:25 19° S
ISS -3.1 20:37:20 10° WNW 20:40:37 55° N 20:43:45 11° E
USA 245 2.9 20:42:39 20° SSW 20:43:54 40° WSW 20:46:02 10° NNW
Cosmos 2279 Rocket 4.1 20:40:12 10° N 20:46:21 62° ENE 20:50:54 19° SSE
Cosmos 2297 3.8 20:41:20 10° NNW 20:47:06 76° WSW 20:51:24 18° SSE
Cosmos 1634 Rocket 4.0 20:41:00 10° N 20:47:20 89° E 20:52:38 15° S
Cosmos 2112 Rocket 4.2 20:44:44 10° SSW 20:50:03 76° WNW 20:55:23 10° NNE
USA 290 4.2 20:48:34 10° NW 20:51:12 23° WSW 20:53:34 11° SSW
Cosmos 1766 Rocket 3.9 20:47:34 10° NNW 20:51:59 66° W 20:55:32 16° S
USA 229 DEB 4.0 20:48:17 10° NW 20:55:42 88° NE 21:01:46 19° SE
USA 229 4.0 20:48:23 10° NW 20:55:48 87° NE 21:01:53 19° SE
Cosmos 1726 1.9 20:54:21 10° N 20:57:27 54° ENE 20:58:35 32° SE
Spot 2 Rocket 3.8 20:54:06 15° S 20:58:10 64° WSW 21:03:12 10° NNW
Cosmos 1680 Rocket 4.3 20:55:12 10° SW 21:00:23 55° WNW 21:05:34 10° NNE
Meteor 2-6 Rocket 4.2 20:58:32 10° S 21:04:12 89° WNW 21:09:44 10° NNE
USA 32 4.4 21:01:24 10° SSW 21:06:34 65° W 21:11:48 10° N
Cosmos 1743 Rocket 4.4 21:04:49 10° N 21:08:54 37° ENE 21:10:51 24° ESE
MetOp-A 3.6 21:11:24 26° SSE 21:13:52 89° SW 21:18:38 10° NNW
Sich 1 3.6 21:09:47 10° N 21:13:59 44° ENE 21:15:51 28° SE
USA 276 2.2 21:13:33 10° W 21:15:14 38° WSW 21:15:14 38° WSW
SL-16 R/B 3.0 21:10:22 10° SW 21:15:55 54° NW 21:21:31 10° NNE
Cosmos 2263 4.2 21:10:54 10° NNW 21:16:35 78° WSW 21:20:00 25° SSE
MOS 1 Rocket 3.9 21:13:56 19° S 21:17:29 58° W 21:22:40 10° NNW
Cosmos 1603 4.2 21:15:41 25° SSE 21:18:21 39° ESE 21:23:37 10° NE
Cosmos 1536 2.6 21:16:46 10° N 21:20:40 83° E 21:22:15 34° SSE
Ariane Rocket 3.9 21:16:49 15° SSW 21:20:42 42° W 21:25:32 10° NNW
Lacrosse 5 3.4 21:16:40 10° WNW 21:20:47 25° SW 21:23:08 18° SSW
Cosmos 2180 Rocket 4.4 21:15:37 10° N 21:21:51 81° E 21:25:40 25° SSE
Lacrosse 5 rocket 2.6 21:18:13 10° W 21:22:20 44° NNW 21:26:23 10° NE
USA 267 4.2 21:17:39 10° ENE 21:22:40 23° SE 21:23:24 23° SE
Cosmos 1452 Rocket 3.5 21:18:42 10° NNW 21:23:59 87° ENE 21:26:45 29° SSE
Cosmos 1408 Rocket 3.5 21:19:35 10° N 21:24:03 88° ENE 21:26:12 31° S
Spot 1 4.1 21:20:37 10° N 21:24:40 72° WNW 21:27:37 18° SSW
Meteor 1-27 Rocket 3.9 21:22:18 26° SSE 21:25:09 53° E 21:30:30 10° NNE
Okean 1 3.2 21:25:59 37° SSE 21:27:17 62° E 21:31:08 10° NNE
Cosmos 2221 4.4 21:24:17 10° SW 21:28:03 29° WNW 21:31:50 10° N
Cosmos 1340 3.2 21:24:55 10° N 21:28:07 37° ENE 21:28:49 33° ESE
Cosmos 2369 Rocket 2.8 21:23:48 10° NW 21:29:09 48° WSW 21:32:23 23° S
Cosmos 1626 4.4 21:31:50 10° ENE 21:31:50 10° ENE 21:32:11 10° ENE
Cosmos 2084 4.5 21:29:40 10° WNW 21:32:53 27° WSW 21:33:53 23° SSW
FALCON 9 R/B 4.5 21:29:51 10° WSW 21:36:49 37° S 21:58:08 10° ESE
USA 306 3.1 21:39:05 10° WNW 21:42:54 57° NNE 21:45:08 23° E
GEOS 3 Rocket 4.4 21:40:44 10° NE 21:45:47 52° NW 21:50:44 10° WSW
ATLAS 3B R/B 4.4 21:46:04 10° WNW 21:52:08 25° WSW 21:57:02 14° SSW
Meteor 2-17 Rocket 4.3 21:50:27 28° S 21:53:48 80° E 21:59:54 10° NNE
SL-8 R/B 3.7 21:50:41 10° SW 21:55:18 54° SSE 21:59:58 10° E
Terra 4.1 21:53:16 10° SW 21:56:20 17° W 21:59:25 10° NW
Cosmos 1500 Rocket 3.9 21:52:07 10° NNW 21:56:22 58° W 21:57:58 35° SSW
Cosmos 1943 3.4 21:53:57 12° SW 21:59:10 73° WNW 22:04:52 10° NNE
Cosmos 1733 3.1 21:56:01 10° NNW 21:59:31 66° W 22:00:07 53° SSW
USA 234 3.9 21:53:52 10° E 22:00:14 57° NNE 22:06:37 10° NW
Spot 4 4.4 21:58:25 32° ESE 22:00:15 48° ENE 22:04:50 10° N
ALOS 2 3.7 21:58:50 26° ESE 22:00:25 33° ENE 22:04:22 10° N
Meteor 2-4 Rocket 4.2 22:00:28 33° SSE 22:02:45 50° E 22:08:28 10° NNE
H-2A R/B 2.5 22:02:30 45° SE 22:03:35 66° ENE 22:07:46 10° N
Cosmos 1805 Rocket 3.9 22:01:00 10° NNW 22:05:17 57° W 22:06:48 36° SSW
IRIDIUM 104 4.3 22:00:59 10° N 22:06:14 76° E 22:08:14 39° SSE
Lacrosse 4 Rocket 3.1 22:04:50 10° NNW 22:08:19 27° NE 22:10:34 17° E
Cosmos 1151 Rocket 2.9 22:08:37 44° S 22:09:58 89° ENE 22:14:20 10° N
Cosmos 1092 Rocket 4.1 22:10:25 34° SSE 22:13:10 64° E 22:19:25 10° NNE
Cosmos 1666 Rocket 3.7 22:09:02 10° N 22:13:20 62° ENE 22:14:23 46° SE
Cosmos 1428 Rocket 4.4 22:11:50 33° S 22:14:50 83° E 22:20:58 10° N
Cosmos 1302 Rocket 3.9 22:10:09 10° NNW 22:15:23 82° WSW 22:17:13 41° SSE
IRIDIUM 114 4.3 22:10:08 10° N 22:15:23 90° WSW 22:17:22 40° S
Cosmos 1656 4.3 22:10:52 10° NNW 22:16:07 46° NE 22:19:03 25° ESE
Cosmos 1633 Rocket 3.3 22:12:40 10° N 22:17:02 56° ENE 22:18:08 43° SE
ARIANE 5 R/B 2.8 22:16:04 42° SSW 22:17:18 60° WSW 22:21:36 10° NNW
ISS -3.0 22:14:02 10° WNW 22:16:33 41° WSW 22:16:33 41° WSW
Cosmos 1340 Rocket 3.1 22:17:22 41° SW 22:18:34 63° WNW 22:22:34 10° N
USA 59 Rocket 0.3 22:17:12 10° NW 22:20:59 63° NE 22:22:59 33° ESE
NOSS 2-1 (E) 3.8 22:18:04 10° NW 22:21:51 64° NE 22:23:49 33° ESE
MINOTAUR 4 R/B 4.3 22:19:17 10° N 22:22:10 45° WNW 22:22:21 44° W
Cosmos 1992 Rocket 4.2 22:18:33 10° NNW 22:23:46 63° ENE 22:25:48 36° SE
IRIDIUM 103 4.3 22:19:19 10° N 22:24:32 76° W 22:26:30 39° SSW
CZ-2C R/B 4.0 22:20:58 10° N 22:25:28 61° WNW 22:27:22 32° SW
H-2A R/B 3.7 22:22:04 10° NE 22:25:28 21° E 22:25:53 21° E
Cosmos 1697 Rocket 4.3 22:21:51 10° NNW 22:26:43 29° NE 22:31:17 11° ESE
Cosmos 614 Rocket 4.0 22:27:45 44° SSE 22:29:14 63° ESE 22:34:24 10° NNE
Cosmos 1766 3.7 22:26:52 10° N 22:30:28 44° ENE 22:30:52 42° E
Cosmos 2195 Rocket 4.4 22:27:33 33° SSW 22:30:29 84° W 22:36:38 10° N
Cosmos 1980 Rocket 4.5 22:27:46 10° N 22:31:49 19° NE 22:35:51 10° E
NOSS 2-1 (D) 3.5 22:29:40 10° NW 22:33:29 83° NE 22:34:55 44° SE
Cosmos 1470 4.2 22:31:10 10° NNE 22:34:17 24° ENE 22:34:54 23° E
Cosmos 1805 3.8 22:36:14 10° NNW 22:39:46 43° W 22:40:09 41° WSW
Spot 2 4.3 22:50:57 50° SSW 22:51:59 68° WSW 22:56:46 10° NNW
Cosmos 1975 3.6 22:53:00 10° NNW 22:56:41 38° W 22:57:09 36° WSW
NOSS 3-3 (A) 4.1 22:59:40 41° SSE 23:00:53 47° ESE 23:06:53 10° NE
Lacrosse 5 rocket 3.7 22:57:52 10° WNW 23:01:28 26° N 23:04:58 10° NE
Cosmos 1626 2.4 23:04:41 47° WNW 23:04:41 47° WNW 23:07:44 10° N
Cosmos 1269 Rocket 4.0 23:04:35 47° S 23:05:59 69° ESE 23:11:15 10° NNE
USA 267 3.1 22:59:53 10° ENE 23:06:26 73° SE 23:10:42 24° SW
Cosmos 1674 2.7 23:07:50 57° ENE 23:07:50 57° ENE 23:11:04 10° NNE
NOSS 2-1 (C) 3.8 23:04:52 10° NW 23:08:42 54° SW 23:09:07 52° SSW
Cosmos 2082 Rocket 4.3 23:08:47 11° ESE 23:10:20 13° E 23:12:39 10° ENE
PSLV R/B 3.6 23:08:31 10° NNE 23:13:09 73° ESE 23:13:59 56° SSE
USA 306 3.9 23:12:57 10° WNW 23:15:15 29° W 23:15:15 29° W
Cosmos 1833 Rocket 3.1 23:17:10 39° SE 23:18:30 46° ESE 23:23:50 10° NE
Cosmos 44 Rocket 4.2 23:17:49 10° NNW 23:22:38 46° NE 23:26:07 17° ESE
Cosmos 2315 Rocket 4.5 23:18:17 10° N 23:24:26 53° ENE 23:27:37 28° SE
S3M 4.1 23:19:15 10° N 23:25:40 77° E 23:28:27 36° SSE
NOSS 3-3 (C) 3.8 23:26:06 43° S 23:27:53 67° SE 23:34:13 10° NE
SL-24 R/B 4.3 23:25:53 10° N 23:30:18 74° WNW 23:31:32 48° SW
Cosmos 2285 Rocket 4.4 23:29:13 35° SSE 23:31:24 49° ESE 23:37:27 10° NNE
Cosmos 1515 Rocket 3.7 23:31:37 52° SW 23:32:27 64° WNW 23:36:46 10° N
GP-B 3.3 23:30:38 10° N 23:35:00 61° E 23:35:54 49° SE
Cosmos 1400 Rocket 4.4 23:34:57 22° ESE 23:35:34 23° E 23:38:46 10° NE
ALOS 2 3.8 23:36:13 28° WSW 23:36:45 29° W 23:40:36 10° NW
Cosmos 1553 Rocket 4.3 23:31:36 10° NNW 23:37:27 50° W 23:39:39 35° SW
SL-8 R/B 3.6 23:32:50 10° W 23:37:38 88° S 23:42:26 10° E
Cosmos 1869 Rocket 3.5 23:37:45 10° N 23:42:07 82° E 23:42:58 57° SSE
USA 234 3.2 23:38:51 23° SE 23:43:10 70° SW 23:49:44 10° WNW
Meteor 1-13 Rocket 4.4 23:41:22 40° S 23:43:34 75° E 23:49:30 10° NNE
Cosmos 1733 Rocket 4.3 23:41:15 10° N 23:45:13 34° ENE 23:46:57 25° ESE
Lacrosse 4 Rocket 1.9 23:42:52 10° NW 23:46:28 41° WSW 23:46:28 41° WSW
